Location: Unspecified
(0.0000°N, 0.0000°E)
Time: 03:49:35
(UTC+00:00)

JUGNU - Visible Passes

Search period start: 18 January 2018 00:00
Search period end: 28 January 2018 00:00
Orbit: 837 x 864 km, 20.0° (Epoch: 16 January)

Date Brightness Start Highest point End Pass type
(mag) Time Alt. Az. Time Alt. Az. Time Alt. Az.
18 Jan ? 03:27:36 14° S 03:28:22 15° SSE 03:31:33 10° SE visible
18 Jan ? 05:12:44 10° SW 05:17:56 31° SSE 05:23:05 10° E visible
18 Jan ? 19:48:06 10° W 19:53:56 55° SSW 19:56:53 29° SE visible
18 Jan ? 21:38:39 10° WSW 21:38:47 10° WSW 21:38:47 10° WSW visible
19 Jan ? 03:14:01 16° SSE 03:14:01 16° SSE 03:16:52 10° SE visible
19 Jan ? 04:57:31 10° SW 05:02:52 35° SSE 05:08:11 10° E visible
19 Jan ? 19:33:05 10° W 19:38:50 49° SSW 19:43:25 16° SE visible
19 Jan ? 21:23:50 10° WSW 21:25:19 15° SW 21:25:19 15° SW visible
20 Jan ? 03:00:29 14° SE 03:00:29 14° SE 03:02:08 10° SE visible
20 Jan ? 04:42:23 10° SW 04:47:48 39° SSE 04:53:15 10° E visible
20 Jan ? 19:18:06 10° W 19:23:45 44° SSW 19:29:26 10° SE visible
20 Jan ? 21:09:03 10° WSW 21:11:48 18° SSW 21:11:48 18° SSW visible
21 Jan ? 02:47:02 11° SE 02:47:02 11° SE 02:47:23 10° ESE visible
21 Jan ? 04:28:57 20° SW 04:32:44 44° SSE 04:38:18 10° E visible
21 Jan ? 19:03:09 10° W 19:08:40 39° SSW 19:14:14 10° SE visible
21 Jan ? 20:54:17 10° SW 20:58:08 17° SSW 20:58:12 17° SSW visible
22 Jan ? 04:15:32 34° SSW 04:17:39 49° SSE 04:23:20 10° E visible
22 Jan ? 18:48:13 10° W 18:53:35 35° SSW 18:59:01 10° SE visible
22 Jan ? 20:39:33 10° SW 20:43:07 16° SSW 20:44:29 15° S visible
23 Jan ? 04:02:08 54° S 04:02:33 55° SSE 04:08:20 10° E visible
23 Jan ? 05:45:50 10° W 05:51:37 53° NNW 05:57:20 10° NE visible
23 Jan ? 18:33:18 10° W 18:38:31 32° SSW 18:43:47 10° SE visible
23 Jan ? 20:24:50 10° SW 20:28:07 15° SSW 20:30:41 12° SSE visible
24 Jan ? 03:48:44 50° ESE 03:48:44 50° ESE 03:53:19 10° E visible
24 Jan ? 05:30:50 10° W 05:36:31 48° NNW 05:42:10 10° NE visible
24 Jan ? 20:10:10 10° SW 20:13:07 14° S 20:16:05 10° SSE visible
25 Jan ? 03:35:18 31° E 03:35:18 31° E 03:38:17 10° ENE visible
25 Jan ? 05:17:11 17° W 05:21:26 42° NNW 05:27:00 10° NE visible
25 Jan ? 19:55:30 10° SW 19:58:07 13° S 20:00:46 10° SSE visible
26 Jan ? 03:21:48 18° ENE 03:21:48 18° ENE 03:23:13 10° ENE visible
26 Jan ? 05:03:41 25° WNW 05:06:21 38° NNW 05:11:48 10° NE visible
26 Jan ? 19:40:52 10° SSW 19:43:08 12° S 19:45:25 10° SSE visible
27 Jan ? 04:50:06 31° NW 04:51:17 34° NNW 04:56:36 10° NE visible
27 Jan ? 19:26:16 10° SSW 19:28:10 11° S 19:30:04 10° SSE visible
